Stations météo

réclame
Mon MeteoGroup
Weißenburg-Emetzheim, Allemagne (10761): Température de l'air & dewpoint: 11.12.2018 20:00:00 - 17.12.2018 20:00:00 (CET)Weißenburg-Emetzheim, Allemagne (10761): Température de l'air 5cm & Température de l'air -5cm: 11.12.2018 20:00:00 - 17.12.2018 20:00:00 (CET)Weißenburg-Emetzheim, Allemagne (10761): Température de l'air -20cm & Température de l'air -100cm: 11.12.2018 20:00:00 - 17.12.2018 20:00:00 (CET)Weißenburg-Emetzheim, Allemagne (10761): Vitesse du vent & gusts: 11.12.2018 20:00:00 - 17.12.2018 20:00:00 (CET)Weißenburg-Emetzheim, Allemagne (10761): Direction du vent: 11.12.2018 20:00:00 - 17.12.2018 20:00:00 (CET)Weißenburg-Emetzheim, Allemagne (10761): reduced air pressure: 11.12.2018 20:00:00 - 17.12.2018 20:00:00 (CET)Weißenburg-Emetzheim, Allemagne (10761): visibility: 11.12.2018 20:00:00 - 17.12.2018 20:00:00 (CET)Weißenburg-Emetzheim, Allemagne (10761): Ensoleillement: 11.12.2018 20:00:00 - 17.12.2018 20:00:00 (CET)Weißenburg-Emetzheim, Allemagne (10761): Quantités de précipitations: 11.12.2018 20:00:00 - 17.12.2018 20:00:00 (CET)
Date & Time tt [°C] td [°C] tt 5cm [°C] tt -5cm [°C] tt -20cm [°C] tt -100cm [°C] ff [km/h] ff [knt] fx [km/h] fx [knt] dd ppp [hPa] vv [km] sd [min] rr [mm]
17.12.2018 20:00:00 1,5 1,4 1,1 0,5 1,6 7,3 9 5 13 7 S 1028,6 6 0 0,0
17.12.2018 19:00:00 1,4 1,2 1,0 0,4 1,5 7,3 9 5 17 9 S 1027,8 8 0 0,6
17.12.2018 18:00:00 1,7 1,1 1,2 0,3 1,5 7,3 15 8 24 13 S 1027,1 8 0 0,0
17.12.2018 17:00:00 1,4 0,8 1,0 0,0 1,5 7,3 16 8 26 14 SSW 1026,3 9 0 0,0
17.12.2018 16:00:00 1,6 0,8 1,2 0,0 1,5 7,3 15 8 24 13 S 1025,3 10 0 0,0
17.12.2018 15:00:00 1,9 0,9 1,8 0,0 1,5 7,3 18 10 24 13 S 1024,5 12 6 0,0
17.12.2018 14:00:00 2,3 1,0 2,5 0,0 1,5 7,3 16 9 24 13 S 1023,7 15 44 0,0
17.12.2018 13:00:00 2,2 1,1 2,6 0,0 1,5 7,3 15 8 21 12 S 1023,4 15 3 0,0
17.12.2018 12:00:00 1,3 0,6 1,7 -0,1 1,4 7,3 14 8 20 11 S 1023,7 11 1 0,0
17.12.2018 11:00:00 0,5 0,4 0,8 -0,1 1,4 7,3 17 9 26 14 S 1023,7 6 0 0,0
17.12.2018 10:00:00 0,0 0,0 0,2 -0,1 1,4 7,3 16 8 21 11 S 1023,4 4,0 0 0,0
17.12.2018 09:00:00 -0,3 -0,3 -0,3 -0,1 1,4 7,4 13 7 20 11 S 1022,8 4,2 0 0,0
17.12.2018 08:00:00 -0,4 -0,5 -1,0 -0,1 1,4 7,4 12 7 17 9 S 1021,8 4,6 0 0,0
17.12.2018 07:00:00 -0,2 -0,5 -0,6 -0,1 1,4 7,4 10 5 14 8 S 1020,8 6 0 0,0
17.12.2018 06:00:00 -0,2 -0,4 -0,6 -0,1 1,4 7,4 9 5 13 7 SSW 1019,8 6 0 0,0
17.12.2018 05:00:00 -0,1 -0,2 -1,1 -0,1 1,4 7,4 9 5 16 9 SSW 1019,2 5 0 0,0
17.12.2018 04:00:00 0,5 0,2 0,3 -0,1 1,4 7,4 8 4 14 8 S 1018,7 6 0 0,0
17.12.2018 03:00:00 0,4 0,3 0,3 -0,1 1,4 7,4 12 7 16 9 SSW 1018,6 4,9 0 0,0
17.12.2018 02:00:00 0,5 0,5 0,4 -0,1 1,4 7,4 5 3 10 5 S 1018,2 4,0 0 0,0
17.12.2018 01:00:00 0,9 0,7 0,5 -0,2 1,4 7,4 5 3 8 5 W 1017,7 7 0 0,0
17.12.2018 00:00:00 0,9 0,7 0,5 -0,2 1,3 7,4 4 2 13 7 SSW 1017,7 4,5 0 0,0
16.12.2018 23:00:00 1,0 0,8 0,7 -0,2 1,3 7,4 11 6 17 9 S 1017,3 5 0 0,0
16.12.2018 22:00:00 0,7 0,6 0,5 -0,2 1,3 7,5 11 6 20 11 S 1017,4 4,2 0 0,0
16.12.2018 21:00:00 0,5 0,2 0,4 -0,2 1,3 7,5 16 8 22 12 S 1017,1 4,5 0 0,0
16.12.2018 20:00:00 0,1 -0,3 0,0 -0,2 1,3 7,5 15 8 21 11 S 1017,0 4,9 0 0,0
16.12.2018 19:00:00 -0,5 -1,0 -0,6 -0,3 1,3 7,5 14 8 19 10 S 1016,8 4,9 0 0,0
16.12.2018 18:00:00 -1,0 -1,4 -1,1 -0,3 1,3 7,5 16 9 22 12 S 1016,6 3,7 0 0,0
16.12.2018 17:00:00 -1,3 -1,8 -1,3 -0,3 1,3 7,5 12 7 22 12 S 1016,3 1,9 0 0,0
16.12.2018 16:00:00 -1,7 -2,4 -1,6 -0,3 1,3 7,5 11 6 19 11 S 1016,0 5 0 0,0
16.12.2018 15:00:00 -1,8 -2,9 -1,6 -0,3 1,3 7,5 13 7 21 12 S 1015,6 7 0 0,0
16.12.2018 14:00:00 -2,1 -3,1 -1,5 -0,4 1,3 7,5 14 7 20 11 S 1015,1 5 0 0,0
16.12.2018 13:00:00 -3,0 -4,2 -2,6 -0,5 1,3 7,5 16 8 23 13 S 1015,6 6 0 0,0
16.12.2018 12:00:00 -3,3 -4,3 -2,8 -0,6 1,3 7,5 14 8 21 11 S 1015,8 2,3 0 0,1
16.12.2018 11:00:00 -3,7 -4,8 -3,0 -0,8 1,3 7,6 14 8 28 15 S 1016,2 2,2 0 0,1
16.12.2018 10:00:00 -3,9 -5,7 -3,5 -1,1 1,4 7,6 15 8 30 16 S 1016,6 3,8 0 0,0
16.12.2018 09:00:00 -3,7 -6,7 -3,3 -1,3 1,4 7,6 22 12 31 17 SSE 1015,9 6 0 0,0
16.12.2018 08:00:00 -3,7 -7,0 -3,5 -1,5 1,4 7,6 18 10 34 18 S 1016,7 13 0 0,0
16.12.2018 07:00:00 -3,9 -7,4 -4,0 -1,7 1,4 7,6 23 12 31 17 SSE 1016,3 15 0 0,0
16.12.2018 06:00:00 -3,9 -7,5 -4,3 -1,7 1,5 7,6 16 8 29 16 SSE 1016,9 14 0 0,0
16.12.2018 05:00:00 -3,7 -7,6 -4,0 -1,7 1,5 7,6 16 8 33 18 S 1017,6 16 0 0,0
16.12.2018 04:00:00 -3,9 -7,4 -4,3 -1,8 1,6 7,6 16 8 29 16 SSE 1018,5 15 0 0,0
16.12.2018 03:00:00 -3,8 -7,4 -4,3 -1,9 1,6 7,6 16 9 29 16 SSE 1018,8 15 0 0,0
16.12.2018 02:00:00 -4,7 -7,6 -6,0 -2,1 1,7 7,6 10 5 27 15 S 1020,3 13 0 0,0
16.12.2018 01:00:00 -5,3 -7,7 -7,3 -1,9 1,7 7,6 7 4 13 7 ESE 1021,0 13 0 0,0
16.12.2018 00:00:00 -4,6 -7,8 -7,0 -1,7 1,7 7,7 7 4 11 6 ESE 1022,1 16 0 0,0
15.12.2018 23:00:00 -4,1 -7,7 -6,3 -1,5 1,8 7,7 7 4 18 10 SE 1022,9 19 0 0,0
15.12.2018 22:00:00 -3,7 -7,6 -5,3 -1,2 1,8 7,7 11 6 17 9 SE 1023,3 21 0 0,0
15.12.2018 21:00:00 -3,5 -7,6 -4,8 -0,8 1,8 7,7 11 6 16 8 SE 1024,3 26 0 0,0
15.12.2018 20:00:00 -3,1 -7,3 -4,0 -0,6 1,8 7,7 14 8 26 14 ESE 1025,2 27 0 0,0
15.12.2018 19:00:00 -2,5 -7,1 -2,8 -0,4 1,9 7,7 14 8 22 12 SE 1025,5 23 0 0,0
15.12.2018 18:00:00 -2,3 -7,0 -2,3 -0,3 1,9 7,7 12 6 19 10 SE 1025,9 30 0 0,0
15.12.2018 17:00:00 -2,1 -7,5 -2,3 -0,2 1,9 7,7 10 6 22 12 ESE 1026,3 36 0 0,0
15.12.2018 16:00:00 -2,0 -7,1 -2,0 -0,1 1,9 7,7 14 8 21 11 ESE 1026,3 33 0 0,0
15.12.2018 15:00:00 -1,8 -7,3 -1,5 -0,1 1,9 7,7 12 6 19 10 SE 1026,4 35 0 0,0
15.12.2018 14:00:00 -1,7 -6,8 -1,3 -0,1 1,9 7,8 8 4 18 10 ESE 1026,3 33 0 0,0
15.12.2018 13:00:00 -1,7 -7,1 -1,3 -0,1 1,9 7,8 11 6 16 9 ESE 1026,8 26 0 0,0
15.12.2018 12:00:00 -1,7 -6,4 -1,3 -0,1 1,9 7,8 9 5 17 9 E 1027,0 30 0 0,0
15.12.2018 11:00:00 -1,7 -6,6 -1,3 -0,2 1,9 7,8 10 5 17 9 ESE 1027,4 31 0 0,0
15.12.2018 10:00:00 -1,8 -6,5 -1,8 -0,3 1,9 7,8 8 4 16 8 E 1027,6 30 0 0,0
15.12.2018 09:00:00 -1,9 -5,7 -2,0 -0,3 1,9 7,8 9 5 15 8 ENE 1027,3 23 0 0,0
15.12.2018 08:00:00 -1,9 -5,1 -2,1 -0,3 1,9 7,8 8 4 14 7 ESE 1027,2 18 0 0,0
15.12.2018 07:00:00 -1,9 -4,5 -2,3 -0,3 1,9 7,8 7 4 9 5 E 1026,9 16 0 0,0
15.12.2018 06:00:00 -1,9 -4,1 -2,1 -0,3 1,9 7,8 6 3 11 6 E 1026,7 14 0 0,0
15.12.2018 05:00:00 -1,8 -4,5 -2,0 -0,2 2,0 7,8 6 3 11 6 NE 1026,4 15 0 0,0
15.12.2018 04:00:00 -1,8 -4,2 -2,0 -0,2 2,0 7,8 5 3 10 6 ENE 1026,2 15 0 0,0
15.12.2018 03:00:00 -1,8 -4,5 -2,0 -0,2 2,0 7,9 7 4 12 7 ENE 1026,0 15 0 0,0
15.12.2018 02:00:00 -1,8 -4,5 -2,0 -0,2 2,0 7,9 6 4 13 7 NE 1025,5 15 0 0,0
15.12.2018 01:00:00 -1,8 -4,1 -1,9 -0,2 2,0 7,9 6 3 14 7 N 1025,4 14 0 0,0
15.12.2018 00:00:00 -1,6 -4,4 -1,8 -0,2 2,0 7,9 7 4 11 6 NE 1025,2 16 0 0,0
14.12.2018 23:00:00 -1,5 -4,5 -2,0 -0,1 2,0 7,9 1 1 5 3 N 1025,4 18 0 0,0
14.12.2018 22:00:00 -1,4 -5,2 -1,8 -0,2 2,0 7,9 1 1 6 3 SE 1025,3 22 0 0,0
14.12.2018 21:00:00 -1,3 -5,0 -1,6 -0,2 2,1 7,9 4 2 9 5 ENE 1024,9 18 0 0,0
14.12.2018 20:00:00 -1,3 -5,3 -1,8 -0,2 2,1 7,9 4 2 10 5 NE 1024,2 20 0 0,0
14.12.2018 19:00:00 -1,4 -5,5 -1,8 -0,2 2,1 7,9 9 5 21 11 E 1023,9 28 0 0,0
14.12.2018 18:00:00 -1,5 -5,6 -1,8 -0,2 2,1 7,9 10 5 20 11 E 1023,6 29 0 0,0
14.12.2018 17:00:00 -1,6 -5,8 -1,8 -0,2 2,1 7,9 16 9 27 14 E 1023,1 31 0 0,0
14.12.2018 16:00:00 -1,7 -5,9 -1,8 -0,1 2,1 7,9 16 8 23 12 E 1022,6 31 0 0,0
14.12.2018 15:00:00 -1,7 -5,8 -1,6 -0,1 2,1 8,0 12 6 21 11 ENE 1021,9 25 0 0,0
14.12.2018 14:00:00 -1,7 -5,8 -1,5 -0,1 2,1 8,0 12 7 21 12 ESE 1021,9 24 0 0,0
14.12.2018 13:00:00 -1,7 -6,0 -1,3 -0,1 2,1 8,0 10 5 23 13 SE 1021,8 27 0 0,0
14.12.2018 12:00:00 -1,8 -5,7 -1,3 -0,1 2,2 8,0 14 7 23 12 E 1021,9 25 0 0,0
14.12.2018 11:00:00 -1,9 -5,6 -1,8 -0,2 2,2 8,0 16 9 27 15 E 1021,9 21 0 0,0
14.12.2018 10:00:00 -2,0 -5,7 -1,8 -0,2 2,2 8,0 18 10 25 13 ENE 1021,3 19 0 0,0
14.12.2018 09:00:00 -2,0 -5,8 -2,0 -0,3 2,2 8,0 16 8 26 14 ENE 1020,9 19 0 0,0
14.12.2018 08:00:00 -1,9 -5,5 -2,0 -0,3 2,2 8,0 16 9 24 13 E 1020,4 19 0 0,0
14.12.2018 07:00:00 -1,7 -5,5 -1,8 -0,2 2,3 8,0 13 7 27 15 E 1019,9 20 0 0,0
14.12.2018 06:00:00 -1,8 -5,4 -1,8 -0,2 2,3 8,0 20 11 30 16 E 1019,7 18 0 0,0
14.12.2018 05:00:00 -1,7 -5,4 -1,8 -0,2 2,3 8,0 21 11 31 17 E 1019,4 19 0 0,0
14.12.2018 04:00:00 -1,7 -5,4 -1,8 -0,2 2,3 8,1 21 11 29 16 ENE 1019,3 18 0 0,0
14.12.2018 03:00:00 -1,5 -5,1 -1,6 -0,1 2,4 8,1 18 10 29 16 E 1019,5 18 0 0,0
14.12.2018 02:00:00 -1,5 -5,0 -1,6 -0,1 2,4 8,1 18 10 32 17 ENE 1019,3 17 0 0,0
14.12.2018 01:00:00 -1,5 -5,0 -1,6 0,0 2,4 8,1 16 9 25 14 E 1019,1 16 0 0,0
14.12.2018 00:00:00 -1,6 -4,3 -1,8 0,0 2,4 8,1 12 7 21 12 ENE 1019,2 12 0 0,0
13.12.2018 23:00:00 -1,6 -4,5 -1,6 0,0 2,4 8,1 13 7 22 12 NE 1018,8 12 0 0,0
13.12.2018 22:00:00 -1,6 -4,4 -1,6 0,1 2,5 8,1 14 7 26 14 NE 1018,8 12 0 0,0
13.12.2018 21:00:00 -1,5 -4,2 -1,6 0,1 2,5 8,1 12 6 25 14 NE 1018,7 12 0 0,0
13.12.2018 20:00:00 -1,4 -4,3 -1,5 0,2 2,5 8,1 16 9 26 14 NE 1018,6 12 0 0,0
13.12.2018 19:00:00 -1,3 -4,2 -1,3 0,2 2,5 8,1 11 6 23 12 NE 1018,4 13 0 0,0
13.12.2018 18:00:00 -1,2 -4,5 -1,3 0,3 2,5 8,1 16 9 26 14 NE 1018,2 14 0 0,0
13.12.2018 17:00:00 -1,0 -4,1 -1,1 0,3 2,5 8,1 11 6 24 13 NE 1018,3 14 0 0,0
13.12.2018 16:00:00 -0,8 -3,9 -1,0 0,4 2,6 8,1 15 8 26 14 NE 1017,9 14 0 0,0
13.12.2018 15:00:00 -0,3 -4,6 -0,5 0,4 2,6 8,2 17 9 29 16 ENE 1017,7 21 0 0,0
13.12.2018 14:00:00 -0,4 -4,4 -0,3 0,3 2,6 8,2 16 9 33 18 ENE 1017,9 20 0 0,0
13.12.2018 13:00:00 -0,6 -3,8 -0,5 0,2 2,6 8,2 15 8 34 19 ENE 1018,2 16 0 0,0
13.12.2018 12:00:00 -0,9 -4,2 -0,6 0,1 2,6 8,2 22 12 32 17 ENE 1018,5 14 0 0,0
13.12.2018 11:00:00 -1,0 -3,9 -0,3 0,1 2,7 8,2 19 11 31 17 ENE 1019,2 10 0 0,0
13.12.2018 10:00:00 -1,9 -3,9 -1,6 0,0 2,7 8,2 13 7 25 14 NNE 1019,6 10 0 0,0
13.12.2018 09:00:00 -2,2 -4,2 -2,1 0,0 2,8 8,2 14 8 27 15 NNE 1019,9 10 0 0,0
13.12.2018 08:00:00 -2,0 -4,3 -2,3 0,1 2,8 8,2 17 9 32 17 ENE 1019,9 12 0 0,0
13.12.2018 07:00:00 -1,6 -4,3 -2,0 0,3 2,9 8,2 17 9 31 17 ENE 1020,0 15 0 0,0
13.12.2018 06:00:00 -1,5 -3,2 -1,6 0,3 2,9 8,2 11 6 31 17 NNE 1020,3 11 0 0,0
13.12.2018 05:00:00 -1,3 -4,0 -1,5 0,3 3,0 8,2 19 10 29 15 ENE 1020,5 23 0 0,0
13.12.2018 04:00:00 -1,3 -3,9 -1,8 0,4 3,0 8,2 11 6 30 16 NE 1021,1 21 0 0,0
13.12.2018 03:00:00 -1,5 -3,4 -2,3 0,5 3,1 8,2 13 7 21 11 NE 1021,6 22 0 0,0
13.12.2018 02:00:00 -1,3 -2,4 -2,0 0,5 3,1 8,3 16 9 22 12 NNE 1021,7 18 0 0,0
13.12.2018 01:00:00 -1,0 -2,5 -1,6 0,5 3,2 8,3 13 7 23 13 NNE 1022,1 22 0 0,0
13.12.2018 00:00:00 -0,1 -2,0 -0,6 0,5 3,3 8,3 14 8 22 12 NE 1022,4 25 0 0,0
12.12.2018 23:00:00 -0,2 -1,3 -0,3 0,7 3,4 8,3 11 6 18 10 NNE 1022,7 31 0 0,0
12.12.2018 22:00:00 0,0 -1,3 -0,3 0,8 3,5 8,3 11 6 19 10 NNE 1023,0 35 0 0,0
12.12.2018 21:00:00 0,3 -0,9 -0,3 1,0 3,5 8,3 9 5 16 9 NNE 1023,1 37 0 0,0
12.12.2018 20:00:00 0,6 -0,7 0,2 1,4 3,6 8,3 9 5 16 9 NNE 1023,0 35 0 0,0
12.12.2018 19:00:00 0,9 -0,2 0,5 1,6 3,6 8,3 5 3 8 5 NNE 1023,0 17 0 0,0
12.12.2018 18:00:00 0,8 -0,2 0,2 1,8 3,7 8,3 4 2 6 4 NNW 1023,2 25 0 0,0
12.12.2018 17:00:00 1,2 0,0 0,7 2,0 3,7 8,3 4 2 6 3 NE 1023,2 24 0 0,0
12.12.2018 16:00:00 1,1 0,0 0,4 2,2 3,7 8,3 5 3 17 9 NNE 1023,3 21 0 0,0
12.12.2018 15:00:00 1,3 0,3 1,2 2,7 3,6 8,3 10 5 15 8 N 1023,3 19 0 0,0
12.12.2018 14:00:00 1,5 0,3 1,7 3,0 3,5 8,3 7 4 11 6 N 1023,5 23 0 0,0
12.12.2018 13:00:00 1,2 0,6 1,7 2,7 3,5 8,3 7 4 12 6 N 1023,8 18 0 0,0
12.12.2018 12:00:00 0,7 0,6 0,7 2,2 3,4 8,3 8 4 15 8 N 1024,2 3,7 0 0,1
12.12.2018 11:00:00 1,5 -0,2 1,7 2,2 3,4 8,3 9 5 14 8 N 1024,4 23 0 0,0
12.12.2018 10:00:00 1,2 0,6 1,4 1,9 3,4 8,4 8 4 11 6 WNW 1024,4 9 0 0,0
12.12.2018 09:00:00 0,9 0,6 0,9 1,5 3,4 8,4 6 4 16 9 NW 1024,1 7 0 0,0
12.12.2018 08:00:00 0,8 0,6 0,5 1,3 3,4 8,4 13 7 19 11 WNW 1023,8 6 0 0,0
12.12.2018 07:00:00 0,9 0,6 0,7 1,4 3,5 8,4 16 9 23 13 WNW 1023,7 6 0 0,0
12.12.2018 06:00:00 1,0 0,4 0,7 1,5 3,5 8,4 18 10 24 13 WNW 1023,4 6 0 0,0
12.12.2018 05:00:00 1,2 0,4 0,7 1,5 3,5 8,4 16 9 22 12 W 1023,4 9 0 0,0
12.12.2018 04:00:00 0,6 0,6 0,5 1,5 3,5 8,4 8 4 21 11 W 1023,6 2,7 0 0,0
12.12.2018 03:00:00 1,0 0,5 0,9 1,6 3,5 8,4 16 9 24 13 W 1023,7 5 0 0,0
12.12.2018 02:00:00 1,2 0,1 1,0 1,5 3,6 8,4 15 8 26 14 W 1023,4 9 0 0,0
12.12.2018 01:00:00 1,3 0,0 1,2 1,5 3,6 8,4 17 9 26 14 W 1023,5 12 0 0,0
12.12.2018 00:00:00 1,2 0,0 0,7 1,4 3,6 8,4 14 8 23 12 W 1023,3 13 0 0,0
11.12.2018 23:00:00 1,3 0,0 1,0 1,4 3,7 8,4 14 8 23 12 W 1023,6 9 0 0,0
11.12.2018 22:00:00 1,4 0,0 1,0 1,4 3,7 8,4 18 10 26 14 W 1023,4 15 0 0,0
11.12.2018 21:00:00 1,2 -0,2 0,7 1,2 3,8 8,4 16 9 26 14 W 1023,5 17 0 0,0
11.12.2018 20:00:00 1,2 -0,2 0,0 0,9 3,9 8,4 21 11 30 16 W 1023,5 19 0 0,0

tt = Température de l'air
td = dewpoint
tt 5cm = Température de l'air 5cm
tt -5cm = Température de l'air -5cm
tt -20cm = Température de l'air -20cm
tt -100cm = Température de l'air -100cm
ff = Vitesse du vent
fx = gusts
dd = Direction du vent
ppp = reduced air pressure
vv = visibility
sd = Ensoleillement
rr = Quantités de précipitations

stations d'obs. à proximité